TimePST,TemperatureF,Dew PointF,Humidity,Sea Level PressureIn,VisibilityMPH,Wind Direction,Wind SpeedMPH,Gust SpeedMPH,PrecipitationIn,Events,Conditions,WindDirDegrees,DateUTC
12:15 AM,53.6,50.0,88,29.98,8.0,ESE,4.6,-,N/A,,Mostly Cloudy,110,2012-11-17 08:15:00
12:35 AM,53.6,50.0,88,29.98,8.0,Calm,Calm,-,N/A,,Mostly Cloudy,0,2012-11-17 08:35:00
12:55 AM,53.6,48.2,82,29.97,9.0,ESE,3.5,-,N/A,,Scattered Clouds,110,2012-11-17 08:55:00
1:15 AM,53.6,48.2,82,29.97,7.0,East,3.5,-,N/A,,Mostly Cloudy,100,2012-11-17 09:15:00
1:35 AM,53.6,48.2,82,29.97,8.0,East,4.6,-,N/A,,Mostly Cloudy,100,2012-11-17 09:35:00
1:55 AM,53.6,48.2,82,29.97,10.0,Calm,Calm,-,N/A,,Mostly Cloudy,0,2012-11-17 09:55:00
2:15 AM,53.6,48.2,82,29.96,10.0,East,4.6,-,N/A,,Scattered Clouds,90,2012-11-17 10:15:00
2:35 AM,55.4,48.2,77,29.95,10.0,East,8.1,-,N/A,,Clear,90,2012-11-17 10:35:00
2:55 AM,53.6,46.4,77,29.95,10.0,East,8.1,-,N/A,,Scattered Clouds,100,2012-11-17 10:55:00
3:15 AM,53.6,48.2,82,29.95,10.0,ESE,6.9,-,N/A,,Mostly Cloudy,110,2012-11-17 11:15:00
3:35 AM,53.6,48.2,82,29.95,10.0,ESE,3.5,-,N/A,,Overcast,110,2012-11-17 11:35:00
3:55 AM,55.4,48.2,77,29.95,10.0,Calm,Calm,-,N/A,,Mostly Cloudy,0,2012-11-17 11:55:00
4:15 AM,55.4,48.2,77,29.97,10.0,South,4.6,-,N/A,,Overcast,190,2012-11-17 12:15:00
4:35 AM,53.6,48.2,82,29.98,10.0,WSW,6.9,-,0.05,,Overcast,240,2012-11-17 12:35:00
4:55 AM,53.6,50.0,88,29.99,10.0,West,5.8,-,0.11,,Overcast,260,2012-11-17 12:55:00
5:15 AM,53.6,50.0,88,29.98,9.0,East,5.8,-,0.02,,Overcast,90,2012-11-17 13:15:00
5:35 AM,53.6,50.0,88,29.98,10.0,East,5.8,-,0.02,,Mostly Cloudy,90,2012-11-17 13:35:00
5:55 AM,53.6,51.8,94,29.99,8.0,ESE,5.8,-,0.02,,Mostly Cloudy,110,2012-11-17 13:55:00
6:15 AM,53.6,51.8,94,30.00,9.0,East,9.2,-,N/A,,Overcast,100,2012-11-17 14:15:00
6:35 AM,55.4,51.8,88,30.00,9.0,East,9.2,-,0.01,,Overcast,90,2012-11-17 14:35:00
6:55 AM,55.4,51.8,88,30.00,10.0,East,6.9,-,0.01,,Overcast,80,2012-11-17 14:55:00
7:15 AM,55.4,51.8,88,30.00,10.0,East,8.1,-,N/A,,Overcast,80,2012-11-17 15:15:00
7:35 AM,55.4,51.8,88,30.02,5.0,Calm,Calm,-,0.01,,Overcast,0,2012-11-17 15:35:00
7:55 AM,55.4,51.8,88,30.01,10.0,NE,4.6,-,0.03,,Mostly Cloudy,50,2012-11-17 15:55:00
8:15 AM,57.2,53.6,88,30.01,10.0,North,3.5,-,N/A,,Overcast,360,2012-11-17 16:15:00
8:35 AM,57.2,53.6,88,30.01,10.0,Calm,Calm,-,N/A,,Overcast,0,2012-11-17 16:35:00
8:55 AM,57.2,53.6,88,30.02,10.0,North,3.5,-,N/A,,Overcast,360,2012-11-17 16:55:00
9:15 AM,59.0,53.6,82,30.01,10.0,NNE,4.6,-,N/A,,Mostly Cloudy,20,2012-11-17 17:15:00
9:35 AM,60.8,55.4,82,30.02,10.0,East,4.6,-,N/A,,Mostly Cloudy,90,2012-11-17 17:35:00
9:55 AM,62.6,55.4,77,30.02,10.0,Calm,Calm,-,N/A,,Overcast,0,2012-11-17 17:55:00
10:15 AM,64.4,55.4,73,30.03,10.0,SE,8.1,-,N/A,,Mostly Cloudy,140,2012-11-17 18:15:00
10:35 AM,64.4,57.2,77,30.02,10.0,East,8.1,-,N/A,,Mostly Cloudy,90,2012-11-17 18:35:00
10:55 AM,64.4,55.4,73,30.02,10.0,East,5.8,-,N/A,,Scattered Clouds,80,2012-11-17 18:55:00
11:15 AM,66.2,55.4,68,30.01,10.0,East,5.8,-,N/A,,Partly Cloudy,100,2012-11-17 19:15:00
11:35 AM,68.0,55.4,64,30.00,10.0,ESE,6.9,-,N/A,,Clear,110,2012-11-17 19:35:00
11:55 AM,68.0,55.4,64,29.99,10.0,SE,6.9,-,N/A,,Scattered Clouds,130,2012-11-17 19:55:00
12:15 PM,68.0,53.6,60,29.99,10.0,South,6.9,-,N/A,,Mostly Cloudy,180,2012-11-17 20:15:00
12:35 PM,68.0,51.8,56,29.99,10.0,South,6.9,-,N/A,,Overcast,190,2012-11-17 20:35:00
12:55 PM,68.0,53.6,60,29.98,10.0,South,5.8,-,N/A,,Overcast,170,2012-11-17 20:55:00
1:15 PM,68.0,51.8,56,29.97,10.0,SSE,5.8,-,N/A,,Overcast,160,2012-11-17 21:15:00
1:35 PM,68.0,53.6,60,29.97,10.0,SSE,5.8,-,N/A,,Overcast,150,2012-11-17 21:35:00
1:55 PM,68.0,53.6,60,29.97,10.0,SSE,4.6,-,N/A,,Overcast,150,2012-11-17 21:55:00
2:15 PM,69.8,53.6,56,29.97,10.0,Calm,Calm,-,N/A,,Mostly Cloudy,0,2012-11-17 22:15:00
2:35 PM,69.8,53.6,56,29.97,10.0,Calm,Calm,-,N/A,,Mostly Cloudy,0,2012-11-17 22:35:00
2:55 PM,69.8,53.6,56,29.97,10.0,South,5.8,-,N/A,,Overcast,190,2012-11-17 22:55:00
3:15 PM,69.8,53.6,56,29.97,10.0,SSW,4.6,-,N/A,,Overcast,210,2012-11-17 23:15:00
3:35 PM,68.0,53.6,60,29.98,10.0,WSW,10.4,-,N/A,,Overcast,250,2012-11-17 23:35:00
3:55 PM,66.2,55.4,68,29.98,10.0,West,5.8,-,N/A,,Overcast,270,2012-11-17 23:55:00
4:15 PM,66.2,55.4,68,29.98,10.0,SW,6.9,-,N/A,,Mostly Cloudy,220,2012-11-18 00:15:00
4:35 PM,66.2,55.4,68,29.98,10.0,SW,5.8,-,N/A,,Mostly Cloudy,220,2012-11-18 00:35:00
4:55 PM,64.4,55.4,73,29.98,10.0,SSW,4.6,-,N/A,,Scattered Clouds,210,2012-11-18 00:55:00
5:15 PM,62.6,55.4,77,29.98,10.0,SSW,3.5,-,N/A,,Scattered Clouds,200,2012-11-18 01:15:00
5:35 PM,62.6,55.4,77,29.99,10.0,ESE,4.6,-,N/A,,Scattered Clouds,120,2012-11-18 01:35:00
5:55 PM,62.6,55.4,77,29.99,10.0,Calm,Calm,-,N/A,,Mostly Cloudy,0,2012-11-18 01:55:00
6:15 PM,62.6,55.4,77,30.00,10.0,SSW,6.9,-,N/A,,Scattered Clouds,210,2012-11-18 02:15:00
6:35 PM,62.6,55.4,77,30.00,10.0,SW,6.9,-,N/A,,Mostly Cloudy,220,2012-11-18 02:35:00
6:55 PM,60.8,53.6,77,30.01,10.0,South,6.9,-,N/A,,Scattered Clouds,180,2012-11-18 02:55:00
7:15 PM,60.8,53.6,77,30.02,10.0,SSE,6.9,-,N/A,,Partly Cloudy,150,2012-11-18 03:15:00
7:35 PM,60.8,53.6,77,30.02,10.0,SSE,3.5,-,N/A,,Partly Cloudy,160,2012-11-18 03:35:00
7:55 PM,60.8,51.8,72,30.03,10.0,SE,4.6,-,N/A,,Partly Cloudy,140,2012-11-18 03:55:00
8:15 PM,60.8,53.6,77,30.03,10.0,South,4.6,-,N/A,,Partly Cloudy,180,2012-11-18 04:15:00
8:35 PM,57.2,51.8,82,30.05,10.0,SSE,4.6,-,N/A,,Clear,160,2012-11-18 04:35:00
8:55 PM,57.2,51.8,82,30.06,10.0,SE,4.6,-,N/A,,Mostly Cloudy,140,2012-11-18 04:55:00
9:15 PM,57.2,51.8,82,30.06,10.0,SE,5.8,-,N/A,,Overcast,140,2012-11-18 05:15:00
9:35 PM,57.2,51.8,82,30.07,10.0,SSE,6.9,-,N/A,,Mostly Cloudy,150,2012-11-18 05:35:00
9:55 PM,57.2,51.8,82,30.07,10.0,SE,4.6,-,N/A,,Mostly Cloudy,140,2012-11-18 05:55:00
10:15 PM,57.2,51.8,82,30.08,10.0,South,8.1,-,N/A,,Partly Cloudy,170,2012-11-18 06:15:00
10:35 PM,57.2,51.8,82,30.08,10.0,South,8.1,-,N/A,,Clear,190,2012-11-18 06:35:00
10:55 PM,57.2,50.0,77,30.08,10.0,South,6.9,-,N/A,,Clear,190,2012-11-18 06:55:00
11:15 PM,55.4,48.2,77,30.08,10.0,SSE,5.8,-,N/A,,Clear,150,2012-11-18 07:15:00
11:35 PM,55.4,48.2,77,30.09,10.0,SSE,9.2,-,N/A,,Clear,160,2012-11-18 07:35:00
11:55 PM,53.6,48.2,82,30.09,10.0,SE,5.8,-,N/A,,Clear,140,2012-11-18 07:55:00